,,PA_Meas_PMT16A,,PR_Meas_QMR101_102,,RH_Meas_QMH101,,SR_Meas_QMS101,,TA_Meas_QMH101,,GenWind,,GenWind,
time,status,PA,status,PR,status,RH,status,SR,status,TA,status,DirAvg,status,SpdAvg,
2010-05-01, 00:00:04,VALID,917.363,VALID,0,VALID,95.1707,VALID,0,VALID,20.7365,VALID,106,VALID,0,
2010-05-01, 00:01:04,VALID,917.341,VALID,0,VALID,95.3232,VALID,0,VALID,20.7755,VALID,106,VALID,0,
2010-05-01, 00:02:04,VALID,917.345,VALID,0,VALID,95.4909,VALID,0,VALID,20.8145,VALID,106,VALID,0.347266,
2010-05-01, 00:03:04,VALID,917.293,VALID,0,VALID,95.6205,VALID,0,VALID,20.834,VALID,106,VALID,0.144922,
2010-05-01, 00:04:04,VALID,917.283,VALID,0,VALID,95.8263,VALID,0,VALID,20.8925,VALID,106,VALID,0.417188,
2010-05-01, 00:05:04,VALID,917.298,VALID,0,VALID,96.055,VALID,0,VALID,21.0096,VALID,106,VALID,0.564453,
2010-05-01, 00:06:04,VALID,917.31,VALID,0,VALID,95.9559,VALID,0,VALID,21.0096,VALID,106,VALID,0.0996094,
2010-05-01, 00:07:04,VALID,917.286,VALID,0,VALID,95.7882,VALID,0,VALID,21.0096,VALID,106,VALID,0.314063,
2010-05-01, 00:08:04,VALID,917.281,VALID,0,VALID,95.8797,VALID,0,VALID,21.0681,VALID,106,VALID,0.497656,
2010-05-01, 00:09:04,VALID,917.262,VALID,0,VALID,95.9102,VALID,0,VALID,21.086,VALID,106,VALID,0.474219,
2010-05-01, 00:10:04,VALID,917.234,VALID,0,VALID,95.6662,VALID,0,VALID,21.086,VALID,106,VALID,1.09336,
2010-05-01, 00:11:04,VALID,917.191,VALID,0,VALID,95.4985,VALID,0.107441,VALID,21.0665,VALID,106,VALID,1.01016,
2010-05-01, 00:12:04,VALID,917.147,VALID,0,VALID,95.4375,VALID,0,VALID,21.047,VALID,106,VALID,1.15469,
2010-05-01, 00:13:04,VALID,917.128,VALID,0,VALID,95.3384,VALID,0.107441,VALID,21.008,VALID,106,VALID,0.938672,
2010-05-01, 00:14:04,VALID,917.093,VALID,0,VALID,95.5976,VALID,0.107441,VALID,21.086,VALID,106,VALID,0.85,
2010-05-01, 00:15:04,VALID,917.084,VALID,0,VALID,95.4833,VALID,0,VALID,21.0486,VALID,106,VALID,0.810547,
2010-05-01, 00:16:04,VALID,917.055,VALID,0,VALID,95.4299,VALID,0,VALID,21.0681,VALID,106,VALID,0.861328,
2010-05-01, 00:17:04,VALID,917.048,VALID,0,VALID,95.3156,VALID,0,VALID,21.0486,VALID,106,VALID,0.742969,
2010-05-01, 00:18:04,VALID,917.051,VALID,0,VALID,95.3537,VALID,0,VALID,21.0681,VALID,106,VALID,0.501172,
2010-05-01, 00:19:04,VALID,916.998,VALID,0,VALID,95.2393,VALID,0,VALID,21.0486,VALID,106,VALID,0.253516,
2010-05-01, 00:20:04,VALID,917.011,VALID,0,VALID,94.7514,VALID,0,VALID,20.9901,VALID,106,VALID,0.230469,
2010-05-01, 00:21:04,VALID,917.02,VALID,0,VALID,94.4922,VALID,0,VALID,20.9706,VALID,106,VALID,0.385547,
2010-05-01, 00:22:04,VALID,917.02,VALID,0,VALID,95.1097,VALID,0,VALID,21.0291,VALID,106,VALID,0.847266,
2010-05-01, 00:23:04,VALID,916.989,VALID,0,VALID,95.6281,VALID,0,VALID,21.1071,VALID,106,VALID,0.8375,
2010-05-01, 00:24:04,VALID,916.986,VALID,0,VALID,95.6815,VALID,0,VALID,21.0681,VALID,106,VALID,0.667969,
2010-05-01, 00:25:04,VALID,916.996,VALID,0,VALID,95.6586,VALID,0,VALID,21.0876,VALID,106,VALID,0.516406,
2010-05-01, 00:26:04,VALID,916.974,VALID,0,VALID,95.7577,VALID,0,VALID,21.1266,VALID,106,VALID,0.658984,
2010-05-01, 00:27:04,VALID,916.986,VALID,0,VALID,95.7654,VALID,0,VALID,21.1657,VALID,106,VALID,0.660156,
2010-05-01, 00:28:04,VALID,916.932,VALID,0,VALID,95.5976,VALID,0,VALID,21.1852,VALID,106,VALID,0.357031,
2010-05-01, 00:29:04,VALID,916.855,VALID,0,VALID,95.1097,VALID,0,VALID,21.1071,VALID,106,VALID,0.167969,
2010-05-01, 00:30:04,VALID,916.843,VALID,0,VALID,94.881,VALID,0,VALID,21.1657,VALID,106,VALID,0.958203,
2010-05-01, 00:31:04,VALID,916.797,VALID,0,VALID,95.2775,VALID,0,VALID,21.2242,VALID,106,VALID,1.00039,
2010-05-01, 00:32:04,VALID,916.752,VALID,0,VALID,95.3461,VALID,0,VALID,21.2242,VALID,131,VALID,1.28555,
2010-05-01, 00:33:04,VALID,916.726,VALID,0,VALID,95.3766,VALID,0,VALID,21.2047,VALID,161,VALID,0.933594,
2010-05-01, 00:34:04,VALID,916.724,VALID,0,VALID,95.4071,VALID,0,VALID,21.2047,VALID,161,VALID,0.8375,
2010-05-01, 00:35:04,VALID,916.718,VALID,0,VALID,95.3308,VALID,0,VALID,21.1461,VALID,161,VALID,0.701172,
2010-05-01, 00:36:04,VALID,916.69,VALID,0,VALID,95.4223,VALID,0,VALID,21.1266,VALID,161,VALID,0.686328,
2010-05-01, 00:37:04,VALID,916.682,VALID,0,VALID,95.4528,VALID,0,VALID,21.125,VALID,161,VALID,0.594141,
2010-05-01, 00:38:04,VALID,916.644,VALID,0,VALID,95.3918,VALID,0,VALID,21.0665,VALID,161,VALID,0.594531,
2010-05-01, 00:39:04,VALID,916.621,VALID,0,VALID,95.4757,VALID,0,VALID,21.1071,VALID,161,VALID,0.877344,
2010-05-01, 00:40:04,VALID,916.612,VALID,0,VALID,95.3384,VALID,0,VALID,21.0486,VALID,161,VALID,1.08867,
2010-05-01, 00:41:04,VALID,916.627,VALID,0,VALID,95.4299,VALID,0,VALID,21.0291,VALID,161,VALID,1.04023,
2010-05-01, 00:42:04,VALID,916.581,VALID,0,VALID,95.5443,VALID,0,VALID,21.0486,VALID,161,VALID,1.07461,
2010-05-01, 00:43:04,VALID,916.552,VALID,0,VALID,95.4071,VALID,0,VALID,21.0291,VALID,161,VALID,0.913281,
2010-05-01, 00:44:04,VALID,916.565,VALID,0,VALID,95.4147,VALID,0,VALID,20.9901,VALID,134,VALID,0.993359,
2010-05-01, 00:45:04,VALID,916.512,VALID,0,VALID,95.529,VALID,0,VALID,20.9722,VALID,134,VALID,1.07031,
2010-05-01, 00:46:04,VALID,916.513,VALID,0,VALID,95.5748,VALID,0,VALID,20.873,VALID,134,VALID,0.810547,
2010-05-01, 00:47:04,VALID,916.503,VALID,0,VALID,95.7196,VALID,0,VALID,20.8535,VALID,134,VALID,0.880859,
2010-05-01, 00:48:04,VALID,916.491,VALID,0,VALID,95.8035,VALID,0,VALID,20.795,VALID,134,VALID,0.407813,
2010-05-01, 00:49:04,VALID,916.496,VALID,0,VALID,95.9331,VALID,0,VALID,20.756,VALID,134,VALID,0.396094,
2010-05-01, 00:50:04,VALID,916.511,VALID,0,VALID,95.9788,VALID,0,VALID,20.717,VALID,134,VALID,0.380859,
2010-05-01, 00:51:04,VALID,916.494,VALID,0,VALID,96.0474,VALID,0,VALID,20.699,VALID,134,VALID,0.353906,
2010-05-01, 00:52:04,VALID,916.485,VALID,0,VALID,96.1618,VALID,0,VALID,20.678,VALID,134,VALID,0.409766,
2010-05-01, 00:53:04,VALID,916.452,VALID,0,VALID,96.2837,VALID,0,VALID,20.6975,VALID,134,VALID,0.513672,
2010-05-01, 00:54:04,VALID,916.44,VALID,0,VALID,96.421,VALID,0,VALID,20.7365,VALID,134,VALID,0.657031,
2010-05-01, 00:55:04,VALID,916.412,VALID,0,VALID,96.4972,VALID,0,VALID,20.756,VALID,134,VALID,0.830078,
2010-05-01, 00:56:04,VALID,916.412,VALID,0,VALID,96.5887,VALID,0,VALID,20.795,VALID,134,VALID,0.760156,
2010-05-01, 00:57:04,VALID,916.398,VALID,0,VALID,96.5887,VALID,0,VALID,20.756,VALID,134,VALID,0.654688,
2010-05-01, 00:58:04,VALID,916.358,VALID,0,VALID,96.5963,VALID,0,VALID,20.7365,VALID,134,VALID,0.869141,
2010-05-01, 00:59:04,VALID,916.326,VALID,0,VALID,96.5429,VALID,0,VALID,20.6975,VALID,134,VALID,0.439453,
2010-05-01, 01:00:04,VALID,916.292,VALID,0,VALID,96.6115,VALID,0,VALID,20.6975,VALID,134,VALID,0.655859,
2010-05-01, 01:01:04,VALID,916.261,VALID,0,VALID,96.5658,VALID,0,VALID,20.678,VALID,134,VALID,0.654297,
2010-05-01, 01:02:04,VALID,916.262,VALID,0,VALID,96.5201,VALID,0,VALID,20.639,VALID,134,VALID,0.688281,
2010-05-01, 01:03:04,VALID,916.275,VALID,0,VALID,96.4743,VALID,0,VALID,20.6194,VALID,134,VALID,0.807031,
2010-05-01, 01:04:04,VALID,916.252,VALID,0,VALID,96.5048,VALID,0,VALID,20.621,VALID,134,VALID,0.863281,
2010-05-01, 01:05:04,VALID,916.25,VALID,0,VALID,96.5429,VALID,0,VALID,20.5999,VALID,134,VALID,0.549609,
2010-05-01, 01:06:04,VALID,916.228,VALID,0,VALID,96.5734,VALID,0,VALID,20.5999,VALID,134,VALID,0.524219,
2010-05-01, 01:07:04,VALID,916.21,VALID,0,VALID,96.6725,VALID,0,VALID,20.678,VALID,134,VALID,0.782422,
2010-05-01, 01:08:04,VALID,916.196,VALID,0,VALID,96.7411,VALID,0,VALID,20.756,VALID,134,VALID,0.855078,
2010-05-01, 01:09:04,VALID,916.199,VALID,0,VALID,96.7945,VALID,0,VALID,20.8145,VALID,134,VALID,0.746484,
2010-05-01, 01:10:04,VALID,916.173,VALID,0,VALID,96.886,VALID,0,VALID,20.9105,VALID,134,VALID,0.658984,
2010-05-01, 01:11:04,VALID,916.167,VALID,0,VALID,96.5506,VALID,0,VALID,20.834,VALID,134,VALID,0.654688,
2010-05-01, 01:12:04,VALID,916.18,VALID,0,VALID,96.4057,VALID,0,VALID,20.7365,VALID,134,VALID,0.941406,
2010-05-01, 01:13:04,VALID,916.165,VALID,0,VALID,96.4896,VALID,0,VALID,20.7966,VALID,134,VALID,0.839063,
2010-05-01, 01:14:04,VALID,916.187,VALID,0,VALID,96.5124,VALID,0,VALID,20.795,VALID,134,VALID,0.583203,
2010-05-01, 01:15:04,VALID,916.169,VALID,0,VALID,96.3905,VALID,0,VALID,20.7365,VALID,134,VALID,0.684766,
2010-05-01, 01:16:04,VALID,916.151,VALID,0,VALID,96.4819,VALID,0,VALID,20.795,VALID,134,VALID,0.450781,
2010-05-01, 01:17:04,VALID,916.113,VALID,0,VALID,96.3829,VALID,0,VALID,20.795,VALID,134,VALID,0.410937,
2010-05-01, 01:18:04,VALID,916.116,VALID,0,VALID,96.1923,VALID,0,VALID,20.678,VALID,134,VALID,0.621875,
2010-05-01, 01:19:04,VALID,916.144,VALID,0,VALID,96.2456,VALID,0,VALID,20.7365,VALID,134,VALID,0.818359,
2010-05-01, 01:20:04,VALID,916.134,VALID,0,VALID,96.1694,VALID,0,VALID,20.7365,VALID,134,VALID,0.5625,
2010-05-01, 01:21:04,VALID,916.158,VALID,0,VALID,96.0322,VALID,0,VALID,20.6975,VALID,134,VALID,0.357812,
2010-05-01, 01:22:04,VALID,916.149,VALID,0,VALID,95.8035,VALID,0,VALID,20.6585,VALID,134,VALID,0.341797,
2010-05-01, 01:23:04,VALID,916.163,VALID,0,VALID,95.8187,VALID,0,VALID,20.678,VALID,134,VALID,0.462891,
2010-05-01, 01:24:04,VALID,916.175,VALID,0,VALID,95.9483,VALID,0,VALID,20.7365,VALID,134,VALID,0.626172,
2010-05-01, 01:25:04,VALID,916.126,VALID,0,VALID,96.238,VALID,0,VALID,20.873,VALID,134,VALID,0.928125,
2010-05-01, 01:26:04,VALID,916.139,VALID,0,VALID,96.2456,VALID,0,VALID,20.873,VALID,134,VALID,0.6625,
2010-05-01, 01:27:04,VALID,916.112,VALID,0,VALID,96.2609,VALID,0,VALID,20.912,VALID,134,VALID,0.437891,
2010-05-01, 01:28:04,VALID,916.121,VALID,0,VALID,96.2151,VALID,0,VALID,20.9511,VALID,134,VALID,0.246484,
2010-05-01, 01:29:04,VALID,916.101,VALID,0,VALID,96.1465,VALID,0,VALID,20.9511,VALID,134,VALID,0.133203,
2010-05-01, 01:30:04,VALID,916.128,VALID,0,VALID,95.9636,VALID,0,VALID,20.912,VALID,134,VALID,0,
2010-05-01, 01:31:04,VALID,916.139,VALID,0,VALID,95.8111,VALID,0,VALID,20.912,VALID,134,VALID,0,
2010-05-01, 01:32:04,VALID,916.203,VALID,0,VALID,95.6357,VALID,0,VALID,20.8925,VALID,134,VALID,0,
2010-05-01, 01:33:04,VALID,916.178,VALID,0,VALID,95.3994,VALID,0,VALID,20.873,VALID,134,VALID,0,
2010-05-01, 01:34:04,VALID,916.207,VALID,0,VALID,95.064,VALID,0,VALID,20.8145,VALID,134,VALID,0.433203,
2010-05-01, 01:35:04,VALID,916.202,VALID,0,VALID,93.7299,VALID,0,VALID,20.678,VALID,134,VALID,0.315234,
2010-05-01, 01:36:04,VALID,916.219,VALID,0,VALID,94.7286,VALID,0,VALID,20.717,VALID,134,VALID,0.015625,
2010-05-01, 01:37:04,VALID,916.231,VALID,0,VALID,95.4147,VALID,0,VALID,20.7365,VALID,134,VALID,0.119531,
2010-05-01, 01:38:04,VALID,916.222,VALID,0,VALID,94.7667,VALID,0,VALID,20.5609,VALID,134,VALID,0,
2010-05-01, 01:39:04,VALID,916.223,VALID,0,VALID,94.942,VALID,0,VALID,20.5625,VALID,134,VALID,0.392969,
2010-05-01, 01:40:04,VALID,916.24,VALID,0,VALID,95.4147,VALID,0,VALID,20.5609,VALID,134,VALID,0.217578,
2010-05-01, 01:41:04,VALID,916.212,VALID,0,VALID,95.0792,VALID,0,VALID,20.4439,VALID,134,VALID,0,
2010-05-01, 01:42:04,VALID,916.233,VALID,0,VALID,95.3156,VALID,0,VALID,20.4454,VALID,134,VALID,0,
2010-05-01, 01:43:04,VALID,916.204,VALID,0,VALID,95.8797,VALID,0,VALID,20.5219,VALID,134,VALID,0,
2010-05-01, 01:44:04,VALID,916.242,VALID,0,VALID,95.9941,VALID,0,VALID,20.5235,VALID,134,VALID,0,
2010-05-01, 01:45:04,VALID,916.207,VALID,0,VALID,96.0779,VALID,0,VALID,20.5024,VALID,134,VALID,0,
2010-05-01, 01:46:04,VALID,916.224,VALID,0,VALID,96.1541,VALID,0,VALID,20.5219,VALID,134,VALID,0,
2010-05-01, 01:47:04,VALID,916.227,VALID,0,VALID,96.2228,VALID,0,VALID,20.5414,VALID,134,VALID,0,
2010-05-01, 01:48:04,VALID,916.201,VALID,0,VALID,96.3142,VALID,0,VALID,20.5789,VALID,134,VALID,0,
2010-05-01, 01:49:04,VALID,916.242,VALID,0,VALID,96.4057,VALID,0,VALID,20.6585,VALID,134,VALID,0,
2010-05-01, 01:50:04,VALID,916.282,VALID,0,VALID,96.4133,VALID,0,VALID,20.639,VALID,134,VALID,0,
2010-05-01, 01:51:04,VALID,916.256,VALID,0,VALID,96.4743,VALID,0,VALID,20.6585,VALID,134,VALID,0.19375,
2010-05-01, 01:52:04,VALID,916.273,VALID,0,VALID,96.2228,VALID,0.107441,VALID,20.5789,VALID,134,VALID,0.436328,
2010-05-01, 01:53:04,VALID,916.268,VALID,0,VALID,95.5519,VALID,0,VALID,20.4049,VALID,134,VALID,0.246484,
2010-05-01, 01:54:04,VALID,916.267,VALID,0,VALID,95.1936,VALID,0,VALID,20.3643,VALID,134,VALID,0.535156,
2010-05-01, 01:55:04,VALID,916.288,VALID,0,VALID,95.2775,VALID,0,VALID,20.3464,VALID,134,VALID,0.539063,
2010-05-01, 01:56:04,VALID,916.269,VALID,0,VALID,95.468,VALID,0,VALID,20.3074,VALID,134,VALID,0.191016,
2010-05-01, 01:57:04,VALID,916.261,VALID,0,VALID,95.7044,VALID,0,VALID,20.3074,VALID,134,VALID,0,
2010-05-01, 01:58:04,VALID,916.264,VALID,0,VALID,95.9941,VALID,0,VALID,20.3854,VALID,134,VALID,0,
2010-05-01, 01:59:04,VALID,916.218,VALID,0,VALID,96.299,VALID,0,VALID,20.4829,VALID,134,VALID,0.00234375,
2010-05-01, 02:00:04,VALID,916.175,VALID,0,VALID,96.5201,VALID,0,VALID,20.5789,VALID,134,VALID,0.169922,
2010-05-01, 02:01:04,VALID,916.18,VALID,0,VALID,96.6802,VALID,0,VALID,20.7154,VALID,134,VALID,0.145703,
2010-05-01, 02:02:04,VALID,916.167,VALID,0,VALID,96.7411,VALID,0,VALID,20.795,VALID,134,VALID,0,
2010-05-01, 02:03:04,VALID,916.149,VALID,0,VALID,96.7869,VALID,0,VALID,20.795,VALID,134,VALID,0,
2010-05-01, 02:04:04,VALID,916.154,VALID,0,VALID,96.3524,VALID,0,VALID,20.5804,VALID,134,VALID,0.70625,
2010-05-01, 02:05:04,VALID,916.156,VALID,0,VALID,96.0932,VALID,0.107441,VALID,20.3448,VALID,134,VALID,0.621094,
2010-05-01, 02:06:04,VALID,916.166,VALID,0,VALID,96.4362,VALID,0,VALID,20.4439,VALID,134,VALID,0.705859,
2010-05-01, 02:07:04,VALID,916.228,VALID,0,VALID,96.5582,VALID,0,VALID,20.4813,VALID,134,VALID,0.735937,
2010-05-01, 02:08:04,VALID,916.217,VALID,0,VALID,96.8326,VALID,0,VALID,20.678,VALID,134,VALID,0.670703,
2010-05-01, 02:09:04,VALID,916.241,VALID,0,VALID,96.9317,VALID,0,VALID,20.7755,VALID,134,VALID,0.573047,
2010-05-01, 02:10:04,VALID,916.248,VALID,0,VALID,96.825,VALID,0,VALID,20.756,VALID,134,VALID,0.594141,
2010-05-01, 02:11:04,VALID,916.227,VALID,0,VALID,96.5353,VALID,0,VALID,20.6585,VALID,134,VALID,0.708203,
2010-05-01, 02:12:04,VALID,916.207,VALID,0,VALID,96.4667,VALID,0,VALID,20.6569,VALID,134,VALID,0.660547,
2010-05-01, 02:13:04,VALID,916.209,VALID,0,VALID,96.5429,VALID,0,VALID,20.7349,VALID,134,VALID,0.645312,
2010-05-01, 02:14:04,VALID,916.193,VALID,0,VALID,96.3371,VALID,0,VALID,20.678,VALID,134,VALID,0.661328,
2010-05-01, 02:15:04,VALID,916.139,VALID,0,VALID,96.3066,VALID,0,VALID,20.717,VALID,134,VALID,0.966797,
2010-05-01, 02:16:04,VALID,916.154,VALID,0,VALID,96.3981,VALID,0,VALID,20.7755,VALID,134,VALID,1.08125,
2010-05-01, 02:17:04,VALID,916.118,VALID,0,VALID,96.3676,VALID,0,VALID,20.7544,VALID,134,VALID,1.4082,
2010-05-01, 02:18:04,VALID,916.094,VALID,0,VALID,96.3905,VALID,0,VALID,20.795,VALID,134,VALID,1.33906,
2010-05-01, 02:19:04,VALID,916.112,VALID,0,VALID,96.3066,VALID,0,VALID,20.7365,VALID,134,VALID,1.05859,
2010-05-01, 02:20:04,VALID,916.124,VALID,0,VALID,96.2685,VALID,0,VALID,20.6975,VALID,134,VALID,1.04414,
2010-05-01, 02:21:04,VALID,916.127,VALID,0,VALID,96.3219,VALID,0,VALID,20.717,VALID,134,VALID,1.325,
2010-05-01, 02:22:04,VALID,916.094,VALID,0,VALID,96.2914,VALID,0,VALID,20.6764,VALID,134,VALID,1.12734,
2010-05-01, 02:23:04,VALID,916.108,VALID,0,VALID,96.36,VALID,0,VALID,20.717,VALID,134,VALID,1.42344,
2010-05-01, 02:24:04,VALID,916.117,VALID,0,VALID,96.3371,VALID,0,VALID,20.7365,VALID,120,VALID,1.21875,
2010-05-01, 02:25:04,VALID,916.072,VALID,0,VALID,96.2685,VALID,0,VALID,20.756,VALID,120,VALID,1.09844,
2010-05-01, 02:26:04,VALID,916.053,VALID,0,VALID,96.2075,VALID,0,VALID,20.7755,VALID,120,VALID,1.40313,
2010-05-01, 02:27:04,VALID,916.047,VALID,0,VALID,96.1846,VALID,0,VALID,20.7365,VALID,146,VALID,1.30039,
2010-05-01, 02:28:04,VALID,916.001,VALID,0,VALID,96.1618,VALID,0,VALID,20.6975,VALID,146,VALID,1.13906,
2010-05-01, 02:29:04,VALID,916.03,VALID,0,VALID,96.1541,VALID,0,VALID,20.639,VALID,154,VALID,1.17734,
2010-05-01, 02:30:04,VALID,916.022,VALID,0,VALID,96.1923,VALID,0,VALID,20.5999,VALID,149,VALID,1.06055,
2010-05-01, 02:31:04,VALID,916.044,VALID,0,VALID,96.3142,VALID,0,VALID,20.5804,VALID,155,VALID,0.799609,
2010-05-01, 02:32:04,VALID,916.007,VALID,0,VALID,96.3905,VALID,0,VALID,20.5609,VALID,155,VALID,0.634375,
2010-05-01, 02:33:04,VALID,915.965,VALID,0,VALID,96.4972,VALID,0,VALID,20.5594,VALID,155,VALID,0.853125,
2010-05-01, 02:34:04,VALID,915.962,VALID,0,VALID,96.5277,VALID,0,VALID,20.5609,VALID,155,VALID,0.770312,
2010-05-01, 02:35:04,VALID,915.993,VALID,0,VALID,96.6039,VALID,0,VALID,20.5399,VALID,155,VALID,1.11133,
2010-05-01, 02:36:04,VALID,915.984,VALID,0,VALID,96.6497,VALID,0,VALID,20.5399,VALID,155,VALID,1.3707,
2010-05-01, 02:37:04,VALID,915.972,VALID,0,VALID,96.7793,VALID,0,VALID,20.5984,VALID,155,VALID,1.31406,
2010-05-01, 02:38:04,VALID,915.978,VALID,0,VALID,96.8326,VALID,0.107441,VALID,20.678,VALID,155,VALID,1.49961,
2010-05-01, 02:39:04,VALID,915.965,VALID,0,VALID,96.9317,VALID,0,VALID,20.7154,VALID,154,VALID,1.48242,
2010-05-01, 02:40:04,VALID,915.976,VALID,0,VALID,96.9394,VALID,0,VALID,20.7739,VALID,154,VALID,1.18711,
2010-05-01, 02:41:04,VALID,915.938,VALID,0,VALID,96.8936,VALID,0,VALID,20.8129,VALID,154,VALID,1.31641,
2010-05-01, 02:42:04,VALID,915.963,VALID,0,VALID,96.8326,VALID,0,VALID,20.8145,VALID,154,VALID,1.1918,
2010-05-01, 02:43:04,VALID,915.903,VALID,0,VALID,96.8098,VALID,0,VALID,20.873,VALID,154,VALID,1.45625,
2010-05-01, 02:44:04,VALID,915.886,VALID,0,VALID,96.7259,VALID,0,VALID,20.8925,VALID,154,VALID,1.02695,
2010-05-01, 02:45:04,VALID,915.855,VALID,0,VALID,96.642,VALID,0,VALID,20.8925,VALID,153,VALID,0.998047,
2010-05-01, 02:46:04,VALID,915.826,VALID,0,VALID,96.5506,VALID,0.107441,VALID,20.8519,VALID,153,VALID,1.00937,
2010-05-01, 02:47:04,VALID,915.827,VALID,0,VALID,96.4896,VALID,0.107441,VALID,20.8714,VALID,153,VALID,1.02148,
2010-05-01, 02:48:04,VALID,915.816,VALID,0,VALID,96.5048,VALID,0,VALID,20.8714,VALID,153,VALID,0.998828,
2010-05-01, 02:49:04,VALID,915.821,VALID,0,VALID,96.4286,VALID,0,VALID,20.8925,VALID,153,VALID,0.592578,
2010-05-01, 02:50:04,VALID,915.858,VALID,0,VALID,96.3981,VALID,0.107441,VALID,20.891,VALID,153,VALID,0.766406,
2010-05-01, 02:51:04,VALID,915.936,VALID,0,VALID,96.3447,VALID,0,VALID,20.8925,VALID,153,VALID,0.716406,
2010-05-01, 02:52:04,VALID,915.948,VALID,0,VALID,96.238,VALID,0,VALID,20.8324,VALID,153,VALID,0.779297,
2010-05-01, 02:53:04,VALID,916.028,VALID,0,VALID,96.1541,VALID,0,VALID,20.834,VALID,152,VALID,0.758594,
2010-05-01, 02:54:04,VALID,916.066,VALID,0,VALID,96.0779,VALID,0,VALID,20.8145,VALID,123,VALID,0.987109,
2010-05-01, 02:55:04,VALID,916.05,VALID,0,VALID,96.0932,VALID,0,VALID,20.8145,VALID,122,VALID,1.04219,
2010-05-01, 02:56:04,VALID,916.083,VALID,0,VALID,96.1236,VALID,0,VALID,20.795,VALID,122,VALID,0.882031,
2010-05-01, 02:57:04,VALID,916.07,VALID,0,VALID,96.0932,VALID,0,VALID,20.7544,VALID,122,VALID,0.798437,
2010-05-01, 02:58:04,VALID,916.049,VALID,0,VALID,96.177,VALID,0,VALID,20.7349,VALID,122,VALID,0.969531,
2010-05-01, 02:59:04,VALID,916.062,VALID,0,VALID,96.2456,VALID,0,VALID,20.7544,VALID,122,VALID,0.928516,
2010-05-01, 03:00:04,VALID,916.016,VALID,0,VALID,96.238,VALID,0,VALID,20.7755,VALID,122,VALID,0.680078,
2010-05-01, 03:01:04,VALID,915.999,VALID,0,VALID,96.2304,VALID,0,VALID,20.795,VALID,122,VALID,0.892187,
2010-05-01, 03:02:04,VALID,915.977,VALID,0,VALID,96.1846,VALID,0,VALID,20.756,VALID,122,VALID,1.04414,
2010-05-01, 03:03:04,VALID,915.938,VALID,0,VALID,96.177,VALID,0,VALID,20.7771,VALID,122,VALID,1.01445,
2010-05-01, 03:04:04,VALID,915.905,VALID,0,VALID,96.177,VALID,0,VALID,20.756,VALID,122,VALID,0.720312,
2010-05-01, 03:05:04,VALID,915.848,VALID,0,VALID,96.1541,VALID,0,VALID,20.7771,VALID,122,VALID,0.891406,
2010-05-01, 03:06:04,VALID,915.806,VALID,0,VALID,96.1694,VALID,0,VALID,20.7365,VALID,122,VALID,0.834766,
2010-05-01, 03:07:04,VALID,915.778,VALID,0,VALID,96.177,VALID,0,VALID,20.7365,VALID,122,VALID,0.859766,
2010-05-01, 03:08:04,VALID,915.74,VALID,0,VALID,96.2151,VALID,0,VALID,20.7576,VALID,122,VALID,0.860937,
2010-05-01, 03:09:04,VALID,915.709,VALID,0,VALID,96.238,VALID,0,VALID,20.7755,VALID,122,VALID,0.911719,
2010-05-01, 03:10:04,VALID,915.688,VALID,0,VALID,96.238,VALID,0,VALID,20.756,VALID,122,VALID,1.18789,
2010-05-01, 03:11:04,VALID,915.636,VALID,0,VALID,96.1694,VALID,0,VALID,20.717,VALID,122,VALID,0.774219,
2010-05-01, 03:12:04,VALID,915.577,VALID,0,VALID,96.1694,VALID,0,VALID,20.678,VALID,123,VALID,1.33789,
2010-05-01, 03:13:04,VALID,915.525,VALID,0,VALID,96.2228,VALID,0,VALID,20.678,VALID,136,VALID,1.09258,
2010-05-01, 03:14:04,VALID,915.488,VALID,0,VALID,96.1694,VALID,0,VALID,20.66,VALID,136,VALID,0.752344,
2010-05-01, 03:15:04,VALID,915.477,VALID,0,VALID,96.2151,VALID,0,VALID,20.6795,VALID,136,VALID,0.920313,
2010-05-01, 03:16:04,VALID,915.455,VALID,0,VALID,96.2228,VALID,0,VALID,20.66,VALID,136,VALID,0.700781,
2010-05-01, 03:17:04,VALID,915.453,VALID,0,VALID,96.2837,VALID,0,VALID,20.6374,VALID,136,VALID,0.766406,
2010-05-01, 03:18:04,VALID,915.477,VALID,0,VALID,96.238,VALID,0,VALID,20.6374,VALID,136,VALID,0.697266,
2010-05-01, 03:19:04,VALID,915.465,VALID,0,VALID,96.2914,VALID,0.107441,VALID,20.6569,VALID,136,VALID,0.791797,
2010-05-01, 03:20:04,VALID,915.451,VALID,0,VALID,96.3447,VALID,0.107441,VALID,20.6975,VALID,136,VALID,0.423438,
2010-05-01, 03:21:04,VALID,915.463,VALID,0,VALID,96.2914,VALID,0.107441,VALID,20.6764,VALID,136,VALID,0.367969,
2010-05-01, 03:22:04,VALID,915.49,VALID,0,VALID,96.1999,VALID,0.107441,VALID,20.6585,VALID,136,VALID,0.491406,
2010-05-01, 03:23:04,VALID,915.445,VALID,0,VALID,96.1999,VALID,0.107441,VALID,20.678,VALID,136,VALID,0.658203,
2010-05-01, 03:24:04,VALID,915.443,VALID,0,VALID,96.3447,VALID,0,VALID,20.6959,VALID,136,VALID,0.618359,
2010-05-01, 03:25:04,VALID,915.409,VALID,0,VALID,96.3752,VALID,0.107441,VALID,20.7154,VALID,136,VALID,0.801562,
2010-05-01, 03:26:04,VALID,915.379,VALID,0,VALID,96.3905,VALID,0,VALID,20.7365,VALID,136,VALID,0.725781,
2010-05-01, 03:27:04,VALID,915.338,VALID,0,VALID,96.3905,VALID,0,VALID,20.756,VALID,136,VALID,0.830859,
2010-05-01, 03:28:04,VALID,915.289,VALID,0,VALID,96.2914,VALID,0,VALID,20.756,VALID,136,VALID,0.566797,
2010-05-01, 03:29:04,VALID,915.272,VALID,0,VALID,96.2837,VALID,0.107441,VALID,20.7739,VALID,136,VALID,0.764844,
2010-05-01, 03:30:04,VALID,915.309,VALID,0,VALID,96.0703,VALID,0,VALID,20.7771,VALID,136,VALID,0.453516,
2010-05-01, 03:31:04,VALID,915.302,VALID,0,VALID,95.8416,VALID,0,VALID,20.7185,VALID,136,VALID,0.711719,
2010-05-01, 03:32:04,VALID,915.329,VALID,0,VALID,95.7349,VALID,0,VALID,20.678,VALID,136,VALID,0.758984,
2010-05-01, 03:33:04,VALID,915.375,VALID,0,VALID,95.6967,VALID,0,VALID,20.6585,VALID,136,VALID,0.798047,
2010-05-01, 03:34:04,VALID,915.366,VALID,0,VALID,95.834,VALID,0,VALID,20.6194,VALID,136,VALID,0.841016,
2010-05-01, 03:35:04,VALID,915.362,VALID,0,VALID,95.9864,VALID,0,VALID,20.6795,VALID,136,VALID,0.922656,
2010-05-01, 03:36:04,VALID,915.405,VALID,0,VALID,96.0322,VALID,0,VALID,20.6585,VALID,136,VALID,0.803516,
2010-05-01, 03:37:04,VALID,915.434,VALID,0,VALID,96.0169,VALID,0,VALID,20.717,VALID,136,VALID,1.04375,
2010-05-01, 03:38:04,VALID,915.441,VALID,0,VALID,95.895,VALID,0,VALID,20.7365,VALID,136,VALID,0.7375,
2010-05-01, 03:39:04,VALID,915.45,VALID,0,VALID,95.8492,VALID,0,VALID,20.7755,VALID,136,VALID,0.875391,
2010-05-01, 03:40:04,VALID,915.489,VALID,0,VALID,95.7577,VALID,0,VALID,20.7755,VALID,136,VALID,0.189063,
2010-05-01, 03:41:04,VALID,915.532,VALID,0,VALID,95.4299,VALID,0,VALID,20.7381,VALID,136,VALID,0.582031,
2010-05-01, 03:42:04,VALID,915.502,VALID,0,VALID,94.9268,VALID,0,VALID,20.6975,VALID,136,VALID,0.694141,
2010-05-01, 03:43:04,VALID,915.503,VALID,0,VALID,95.1707,VALID,0,VALID,20.6975,VALID,136,VALID,0.569141,
2010-05-01, 03:44:04,VALID,915.53,VALID,0,VALID,95.4604,VALID,0,VALID,20.6975,VALID,136,VALID,0.669141,
2010-05-01, 03:45:04,VALID,915.529,VALID,0,VALID,95.6129,VALID,0,VALID,20.6975,VALID,136,VALID,0.626172,